Year,Month,Day,Hour,Minute,Value (Times are PST for temperature in C)
2017,02,14,00,00,2.70
2017,02,14,00,01,2.70
2017,02,14,00,02,2.70
2017,02,14,00,03,2.70
2017,02,14,00,04,2.70
2017,02,14,00,05,2.70
2017,02,14,00,06,2.70
2017,02,14,00,07,2.70
2017,02,14,00,08,2.70
2017,02,14,00,09,2.70
2017,02,14,00,10,2.70
2017,02,14,00,11,2.70
2017,02,14,00,12,2.70
2017,02,14,00,13,2.70
2017,02,14,00,14,2.70
2017,02,14,00,15,2.70
2017,02,14,00,16,2.70
2017,02,14,00,17,2.70
2017,02,14,00,18,2.70
2017,02,14,00,19,2.70
2017,02,14,00,20,2.70
2017,02,14,00,21,2.70
2017,02,14,00,22,2.70
2017,02,14,00,23,2.70
2017,02,14,00,24,2.80
2017,02,14,00,25,2.80
2017,02,14,00,26,2.80
2017,02,14,00,27,2.80
2017,02,14,00,28,2.80
2017,02,14,00,29,2.70
2017,02,14,00,30,2.70
2017,02,14,00,31,2.70
2017,02,14,00,32,2.80
2017,02,14,00,33,2.90
2017,02,14,00,34,2.90
2017,02,14,00,35,3.00
2017,02,14,00,36,3.10
2017,02,14,00,37,3.20
2017,02,14,00,38,3.20
2017,02,14,00,39,3.20
2017,02,14,00,40,3.20
2017,02,14,00,41,3.20
2017,02,14,00,42,3.20
2017,02,14,00,43,3.20
2017,02,14,00,44,3.20
2017,02,14,00,45,3.10
2017,02,14,00,46,3.10
2017,02,14,00,47,3.10
2017,02,14,00,48,3.10
2017,02,14,00,49,3.00
2017,02,14,00,50,3.00
2017,02,14,00,51,3.00
2017,02,14,00,52,2.90
2017,02,14,00,53,2.90
2017,02,14,00,54,2.90
2017,02,14,00,55,2.80
2017,02,14,00,56,2.80
2017,02,14,00,57,2.80
2017,02,14,00,58,2.80
2017,02,14,00,59,2.80
2017,02,14,01,00,2.70
2017,02,14,01,01,2.70
2017,02,14,01,02,2.70
2017,02,14,01,03,2.70
2017,02,14,01,04,2.70
2017,02,14,01,05,2.60
2017,02,14,01,06,2.60
2017,02,14,01,07,2.60
2017,02,14,01,08,2.60
2017,02,14,01,09,2.60
2017,02,14,01,10,2.60
2017,02,14,01,11,2.60
2017,02,14,01,12,2.60
2017,02,14,01,13,2.60
2017,02,14,01,14,2.60
2017,02,14,01,15,2.60
2017,02,14,01,16,2.60
2017,02,14,01,17,2.60
2017,02,14,01,18,2.60
2017,02,14,01,19,2.60
2017,02,14,01,20,2.50
2017,02,14,01,21,2.50
2017,02,14,01,22,2.50
2017,02,14,01,23,2.50
2017,02,14,01,24,2.50
2017,02,14,01,25,2.50
2017,02,14,01,26,2.50
2017,02,14,01,27,2.40
2017,02,14,01,28,2.40
2017,02,14,01,29,2.40
2017,02,14,01,30,2.40
2017,02,14,01,31,2.50
2017,02,14,01,32,2.50
2017,02,14,01,33,2.50
2017,02,14,01,34,2.50
2017,02,14,01,35,2.50
2017,02,14,01,36,2.50
2017,02,14,01,37,2.50
2017,02,14,01,38,2.50
2017,02,14,01,39,2.60
2017,02,14,01,40,2.60
2017,02,14,01,41,2.70
2017,02,14,01,42,2.70
2017,02,14,01,43,2.70
2017,02,14,01,44,2.70
2017,02,14,01,45,2.70
2017,02,14,01,46,2.80
2017,02,14,01,47,2.80
2017,02,14,01,48,2.80
2017,02,14,01,49,2.80
2017,02,14,01,50,2.80
2017,02,14,01,51,2.80
2017,02,14,01,52,2.80
2017,02,14,01,53,2.80
2017,02,14,01,54,2.80
2017,02,14,01,55,2.80
2017,02,14,01,56,2.80
2017,02,14,01,57,2.80
2017,02,14,01,58,2.80
2017,02,14,01,59,2.80
2017,02,14,02,00,2.80
2017,02,14,02,01,2.80
2017,02,14,02,02,2.80
2017,02,14,02,03,2.80
2017,02,14,02,04,2.80
2017,02,14,02,05,2.80
2017,02,14,02,06,2.80
2017,02,14,02,07,2.80
2017,02,14,02,08,2.80
2017,02,14,02,09,2.80
2017,02,14,02,10,2.80
2017,02,14,02,11,2.70
2017,02,14,02,12,2.70
2017,02,14,02,13,2.70
2017,02,14,02,14,2.70
2017,02,14,02,15,2.70
2017,02,14,02,16,2.70
2017,02,14,02,17,2.70
2017,02,14,02,18,2.70
2017,02,14,02,19,2.70
2017,02,14,02,20,2.80
2017,02,14,02,21,2.80
2017,02,14,02,22,2.80
2017,02,14,02,23,2.70
2017,02,14,02,24,2.80
2017,02,14,02,25,2.80
2017,02,14,02,26,2.80
2017,02,14,02,27,2.80
2017,02,14,02,28,2.80
2017,02,14,02,29,2.90
2017,02,14,02,30,2.90
2017,02,14,02,31,2.90
2017,02,14,02,32,2.90
2017,02,14,02,33,2.90
2017,02,14,02,34,3.00
2017,02,14,02,35,3.00
2017,02,14,02,36,3.10
2017,02,14,02,37,3.10
2017,02,14,02,38,3.20
2017,02,14,02,39,3.20
2017,02,14,02,40,3.20
2017,02,14,02,41,3.20
2017,02,14,02,42,3.20
2017,02,14,02,43,3.20
2017,02,14,02,44,3.20
2017,02,14,02,45,3.20
2017,02,14,02,46,3.30
2017,02,14,02,47,3.30
2017,02,14,02,48,3.30
2017,02,14,02,49,3.30
2017,02,14,02,50,3.20
2017,02,14,02,51,3.20
2017,02,14,02,52,3.20
2017,02,14,02,53,3.20
2017,02,14,02,54,3.20
2017,02,14,02,55,3.20
2017,02,14,02,56,3.30
2017,02,14,02,57,3.30
2017,02,14,02,58,3.30
2017,02,14,02,59,3.30
2017,02,14,03,00,3.30
2017,02,14,03,01,3.30
2017,02,14,03,02,3.30
2017,02,14,03,03,3.30
2017,02,14,03,04,3.30
2017,02,14,03,05,3.20
2017,02,14,03,06,3.20
2017,02,14,03,07,3.10
2017,02,14,03,08,3.10
2017,02,14,03,09,3.10
2017,02,14,03,10,3.00
2017,02,14,03,11,3.00
2017,02,14,03,12,2.90
2017,02,14,03,13,2.90
2017,02,14,03,14,2.90
2017,02,14,03,15,2.90
2017,02,14,03,16,2.90
2017,02,14,03,17,2.90
2017,02,14,03,18,2.90
2017,02,14,03,19,2.90
2017,02,14,03,20,2.90
2017,02,14,03,21,2.80
2017,02,14,03,22,2.80
2017,02,14,03,23,2.80
2017,02,14,03,24,2.80
2017,02,14,03,25,2.80
2017,02,14,03,26,2.80
2017,02,14,03,27,2.70
2017,02,14,03,28,2.70
2017,02,14,03,29,2.70
2017,02,14,03,30,2.70
2017,02,14,03,31,2.70
2017,02,14,03,32,2.70
2017,02,14,03,33,2.70
2017,02,14,03,34,2.80
2017,02,14,03,35,2.80
2017,02,14,03,36,2.80
2017,02,14,03,37,2.80
2017,02,14,03,38,2.80
2017,02,14,03,39,2.80
2017,02,14,03,40,2.80
2017,02,14,03,41,2.80
2017,02,14,03,42,2.90
2017,02,14,03,43,2.90
2017,02,14,03,44,2.90
2017,02,14,03,45,2.90
2017,02,14,03,46,2.90
2017,02,14,03,47,2.90
2017,02,14,03,48,2.90
2017,02,14,03,49,2.90
2017,02,14,03,50,2.90
2017,02,14,03,51,2.90
2017,02,14,03,52,3.00
2017,02,14,03,53,3.10
2017,02,14,03,54,3.10
2017,02,14,03,55,3.20
2017,02,14,03,56,3.20
2017,02,14,03,57,3.20
2017,02,14,03,58,3.30
2017,02,14,03,59,3.30
2017,02,14,04,00,3.20
2017,02,14,04,01,3.30
2017,02,14,04,02,3.30
2017,02,14,04,03,3.30
2017,02,14,04,04,3.30
2017,02,14,04,05,3.30
2017,02,14,04,06,3.30
2017,02,14,04,07,3.30
2017,02,14,04,08,3.30
2017,02,14,04,09,3.30
2017,02,14,04,10,3.30
2017,02,14,04,11,3.40
2017,02,14,04,12,3.40
2017,02,14,04,13,3.40
2017,02,14,04,14,3.40
2017,02,14,04,15,3.30
2017,02,14,04,16,3.30
2017,02,14,04,17,3.30
2017,02,14,04,18,3.30
2017,02,14,04,19,3.30
2017,02,14,04,20,3.20
2017,02,14,04,21,3.20
2017,02,14,04,22,3.20
2017,02,14,04,23,3.20
2017,02,14,04,24,3.20
2017,02,14,04,25,3.20
2017,02,14,04,26,3.20
2017,02,14,04,27,3.20
2017,02,14,04,28,3.20
2017,02,14,04,29,3.20
2017,02,14,04,30,3.20
2017,02,14,04,31,3.20
2017,02,14,04,32,3.20
2017,02,14,04,33,3.20
2017,02,14,04,34,3.30
2017,02,14,04,35,3.30
2017,02,14,04,36,3.30
2017,02,14,04,37,3.30
2017,02,14,04,38,3.30
2017,02,14,04,39,3.30
2017,02,14,04,40,3.30
2017,02,14,04,41,3.30
2017,02,14,04,42,3.30
2017,02,14,04,43,3.40
2017,02,14,04,44,3.40
2017,02,14,04,45,3.40
2017,02,14,04,46,3.40
2017,02,14,04,47,3.40
2017,02,14,04,48,3.40
2017,02,14,04,49,3.40
2017,02,14,04,50,3.40
2017,02,14,04,51,3.30
2017,02,14,04,52,3.30
2017,02,14,04,53,3.30
2017,02,14,04,54,3.30
2017,02,14,04,55,3.30
2017,02,14,04,56,3.30
2017,02,14,04,57,3.30
2017,02,14,04,58,3.20
2017,02,14,04,59,3.20
2017,02,14,05,00,3.20
2017,02,14,05,01,3.20
2017,02,14,05,02,3.20
2017,02,14,05,03,3.30
2017,02,14,05,04,3.30
2017,02,14,05,05,3.30
2017,02,14,05,06,3.40
2017,02,14,05,07,3.40
2017,02,14,05,08,3.50
2017,02,14,05,09,3.50
2017,02,14,05,10,3.50
2017,02,14,05,11,3.50
2017,02,14,05,12,3.50
2017,02,14,05,13,3.50
2017,02,14,05,14,3.50
2017,02,14,05,15,3.50
2017,02,14,05,16,3.50
2017,02,14,05,17,3.50
2017,02,14,05,18,3.50
2017,02,14,05,19,3.60
2017,02,14,05,20,3.60
2017,02,14,05,21,3.70
2017,02,14,05,22,3.70
2017,02,14,05,23,3.70
2017,02,14,05,24,3.80
2017,02,14,05,25,3.80
2017,02,14,05,26,3.80
2017,02,14,05,27,3.80
2017,02,14,05,28,3.80
2017,02,14,05,29,3.90
2017,02,14,05,30,3.90
2017,02,14,05,31,3.90
2017,02,14,05,32,3.90
2017,02,14,05,33,3.90
2017,02,14,05,34,3.90
2017,02,14,05,35,4.00
2017,02,14,05,36,4.00
2017,02,14,05,37,4.10
2017,02,14,05,38,4.10
2017,02,14,05,39,4.10
2017,02,14,05,40,4.10
2017,02,14,05,41,4.20
2017,02,14,05,42,4.20
2017,02,14,05,43,4.30
2017,02,14,05,44,4.30
2017,02,14,05,45,4.40
2017,02,14,05,46,4.40
2017,02,14,05,47,4.50
2017,02,14,05,48,4.50
2017,02,14,05,49,4.60
2017,02,14,05,50,4.60
2017,02,14,05,51,4.60
2017,02,14,05,52,4.60
2017,02,14,05,53,4.70
2017,02,14,05,54,4.70
2017,02,14,05,55,4.70
2017,02,14,05,56,4.60
2017,02,14,05,57,4.60
2017,02,14,05,58,4.60
2017,02,14,05,59,4.60
2017,02,14,06,00,4.50
2017,02,14,06,01,4.40
2017,02,14,06,02,4.30
2017,02,14,06,03,4.30
2017,02,14,06,04,4.30
2017,02,14,06,05,4.30
2017,02,14,06,06,4.20
2017,02,14,06,07,4.10
2017,02,14,06,08,4.10
2017,02,14,06,09,4.10
2017,02,14,06,10,4.00
2017,02,14,06,11,4.00
2017,02,14,06,12,4.00
2017,02,14,06,13,3.90
2017,02,14,06,14,4.00
2017,02,14,06,15,4.00
2017,02,14,06,16,4.00
2017,02,14,06,17,4.00
2017,02,14,06,18,4.00
2017,02,14,06,19,4.00
2017,02,14,06,20,4.00
2017,02,14,06,21,3.90
2017,02,14,06,22,3.90
2017,02,14,06,23,3.90
2017,02,14,06,24,3.90
2017,02,14,06,25,3.90
2017,02,14,06,26,3.90
2017,02,14,06,27,3.90
2017,02,14,06,28,3.90
2017,02,14,06,29,3.90
2017,02,14,06,30,3.90
2017,02,14,06,31,3.90
2017,02,14,06,32,3.90
2017,02,14,06,33,3.90
2017,02,14,06,34,3.90
2017,02,14,06,35,3.80
2017,02,14,06,36,3.80
2017,02,14,06,37,3.80
2017,02,14,06,38,3.80
2017,02,14,06,39,3.80
2017,02,14,06,40,3.80
2017,02,14,06,41,3.80
2017,02,14,06,42,3.90
2017,02,14,06,43,3.90
2017,02,14,06,44,3.90
2017,02,14,06,45,3.90
2017,02,14,06,46,3.90
2017,02,14,06,47,3.90
2017,02,14,06,48,3.90
2017,02,14,06,49,3.90
2017,02,14,06,50,3.90
2017,02,14,06,51,3.80
2017,02,14,06,52,3.80
2017,02,14,06,53,3.70
2017,02,14,06,54,3.70
2017,02,14,06,55,3.70
2017,02,14,06,56,3.70
2017,02,14,06,57,3.70
2017,02,14,06,58,3.70
2017,02,14,06,59,3.70
2017,02,14,07,00,3.70
2017,02,14,07,01,3.70
2017,02,14,07,02,3.60
2017,02,14,07,03,3.60
2017,02,14,07,04,3.60
2017,02,14,07,05,3.70
2017,02,14,07,06,3.70
2017,02,14,07,07,3.70
2017,02,14,07,08,3.70
2017,02,14,07,09,3.60
2017,02,14,07,10,3.60
2017,02,14,07,11,3.60
2017,02,14,07,12,3.60
2017,02,14,07,13,3.60
2017,02,14,07,14,3.60
2017,02,14,07,15,3.60
2017,02,14,07,16,3.60
2017,02,14,07,17,3.70
2017,02,14,07,18,3.70
2017,02,14,07,19,3.70
2017,02,14,07,20,3.80
2017,02,14,07,21,3.80
2017,02,14,07,22,3.80
2017,02,14,07,23,3.80
2017,02,14,07,24,3.80
2017,02,14,07,25,3.80
2017,02,14,07,26,3.90
2017,02,14,07,27,3.90
2017,02,14,07,28,3.90
2017,02,14,07,29,4.00
2017,02,14,07,30,4.00
2017,02,14,07,31,4.10
2017,02,14,07,32,4.10
2017,02,14,07,33,4.10
2017,02,14,07,34,4.20
2017,02,14,07,35,4.20
2017,02,14,07,36,4.10
2017,02,14,07,37,4.10
2017,02,14,07,38,4.10
2017,02,14,07,39,4.10
2017,02,14,07,40,4.10
2017,02,14,07,41,4.10
2017,02,14,07,42,4.10
2017,02,14,07,43,4.10
2017,02,14,07,44,4.10
2017,02,14,07,45,4.00
2017,02,14,07,46,4.00
2017,02,14,07,47,4.00
2017,02,14,07,48,3.90
2017,02,14,07,49,3.90
2017,02,14,07,50,3.90
2017,02,14,07,51,3.80
2017,02,14,07,52,3.80
2017,02,14,07,53,3.80
2017,02,14,07,54,3.80
2017,02,14,07,55,3.80
2017,02,14,07,56,3.80
2017,02,14,07,57,3.80
2017,02,14,07,58,3.80
2017,02,14,07,59,3.90
2017,02,14,08,00,3.90
2017,02,14,08,01,4.00
2017,02,14,08,02,4.00
2017,02,14,08,03,4.10
2017,02,14,08,04,4.10
2017,02,14,08,05,4.20
2017,02,14,08,06,4.20
2017,02,14,08,07,4.20
2017,02,14,08,08,4.10
2017,02,14,08,09,4.10
2017,02,14,08,10,4.10
2017,02,14,08,11,4.10
2017,02,14,08,12,4.10
2017,02,14,08,13,4.10
2017,02,14,08,14,4.10
2017,02,14,08,15,4.10
2017,02,14,08,16,4.00
2017,02,14,08,17,4.10
2017,02,14,08,18,4.10
2017,02,14,08,19,4.10
2017,02,14,08,20,4.20
2017,02,14,08,21,4.20
2017,02,14,08,22,4.20
2017,02,14,08,23,4.20
2017,02,14,08,24,4.20
2017,02,14,08,25,4.20
2017,02,14,08,26,4.20
2017,02,14,08,27,4.20
2017,02,14,08,28,4.10
2017,02,14,08,29,4.00
2017,02,14,08,30,3.90
2017,02,14,08,31,3.90
2017,02,14,08,32,3.90
2017,02,14,08,33,3.80
2017,02,14,08,34,3.80
2017,02,14,08,35,3.70
2017,02,14,08,36,3.70
2017,02,14,08,37,3.70
2017,02,14,08,38,3.80
2017,02,14,08,39,3.80
2017,02,14,08,40,3.90
2017,02,14,08,41,3.90
2017,02,14,08,42,3.90
2017,02,14,08,43,3.80
2017,02,14,08,44,3.80
2017,02,14,08,45,3.80
2017,02,14,08,46,3.70
2017,02,14,08,47,3.70
2017,02,14,08,48,3.70
2017,02,14,08,49,3.70
2017,02,14,08,50,3.60
2017,02,14,08,51,3.60
2017,02,14,08,52,3.60
2017,02,14,08,53,3.60
2017,02,14,08,54,3.50
2017,02,14,08,55,3.50
2017,02,14,08,56,3.40
2017,02,14,08,57,3.40
2017,02,14,08,58,3.40
2017,02,14,08,59,3.40
2017,02,14,09,00,3.40
2017,02,14,09,01,3.40
2017,02,14,09,02,3.40
2017,02,14,09,03,3.30
2017,02,14,09,04,3.30
2017,02,14,09,05,3.30
2017,02,14,09,06,3.30
2017,02,14,09,07,3.30
2017,02,14,09,08,3.30
2017,02,14,09,09,3.40
2017,02,14,09,10,3.50
2017,02,14,09,11,3.50
2017,02,14,09,12,3.50
2017,02,14,09,13,3.50
2017,02,14,09,14,3.50
2017,02,14,09,15,3.50
2017,02,14,09,16,3.50
2017,02,14,09,17,3.50
2017,02,14,09,18,3.50
2017,02,14,09,19,3.50
2017,02,14,09,20,3.50
2017,02,14,09,21,3.50
2017,02,14,09,22,3.60
2017,02,14,09,23,3.60
2017,02,14,09,24,3.60
2017,02,14,09,25,3.60
2017,02,14,09,26,3.50
2017,02,14,09,27,3.50
2017,02,14,09,28,3.50
2017,02,14,09,29,3.60
2017,02,14,09,30,3.60
2017,02,14,09,31,3.70
2017,02,14,09,32,3.70
2017,02,14,09,33,3.80
2017,02,14,09,34,3.80
2017,02,14,09,35,3.80
2017,02,14,09,36,3.80
2017,02,14,09,37,3.80
2017,02,14,09,38,3.80
2017,02,14,09,39,3.80
2017,02,14,09,40,3.80
2017,02,14,09,41,3.80
2017,02,14,09,42,3.80
2017,02,14,09,43,3.80
2017,02,14,09,44,3.80
2017,02,14,09,45,3.80
2017,02,14,09,46,3.80
2017,02,14,09,47,3.80
2017,02,14,09,48,3.80
2017,02,14,09,49,3.80
2017,02,14,09,50,3.80
2017,02,14,09,51,3.80
2017,02,14,09,52,3.80
2017,02,14,09,53,3.80
2017,02,14,09,54,3.90
2017,02,14,09,55,3.90
2017,02,14,09,56,4.00
2017,02,14,09,57,4.00
2017,02,14,09,58,4.00
2017,02,14,09,59,4.00
2017,02,14,10,00,4.00
2017,02,14,10,01,4.00
2017,02,14,10,02,4.00
2017,02,14,10,03,4.00
2017,02,14,10,04,4.00
2017,02,14,10,05,4.10
2017,02,14,10,06,4.20
2017,02,14,10,07,4.20
2017,02,14,10,08,4.20
2017,02,14,10,09,4.30
2017,02,14,10,10,4.40
2017,02,14,10,11,4.40
2017,02,14,10,12,4.50
2017,02,14,10,13,4.50
2017,02,14,10,14,4.50
2017,02,14,10,15,4.50
2017,02,14,10,16,4.50
2017,02,14,10,17,4.50
2017,02,14,10,18,4.60
2017,02,14,10,19,4.60
2017,02,14,10,20,4.60
2017,02,14,10,21,4.60
2017,02,14,10,22,4.60
2017,02,14,10,23,4.60
2017,02,14,10,24,4.60
2017,02,14,10,25,4.60
2017,02,14,10,26,4.60
2017,02,14,10,27,4.70
2017,02,14,10,28,4.70
2017,02,14,10,29,4.70
2017,02,14,10,30,4.80
2017,02,14,10,31,4.80
2017,02,14,10,32,4.90
2017,02,14,10,33,4.90
2017,02,14,10,34,5.00
2017,02,14,10,35,5.00
2017,02,14,10,36,5.10
2017,02,14,10,37,5.10
2017,02,14,10,38,5.10
2017,02,14,10,39,5.20
2017,02,14,10,40,5.20
2017,02,14,10,41,5.20
2017,02,14,10,42,5.20
2017,02,14,10,43,5.30
2017,02,14,10,44,5.30
2017,02,14,10,45,5.30
2017,02,14,10,46,5.30
2017,02,14,10,47,5.30
2017,02,14,10,48,5.40
2017,02,14,10,49,5.40
2017,02,14,10,50,5.40
2017,02,14,10,51,5.40
2017,02,14,10,52,5.30
2017,02,14,10,53,5.30
2017,02,14,10,54,5.40
2017,02,14,10,55,5.40
2017,02,14,10,56,5.50
2017,02,14,10,57,5.50
2017,02,14,10,58,5.50
2017,02,14,10,59,5.60
2017,02,14,11,00,5.70
2017,02,14,11,01,5.80
2017,02,14,11,02,5.80
2017,02,14,11,03,5.90
2017,02,14,11,04,5.90
2017,02,14,11,05,6.00
2017,02,14,11,06,6.10
2017,02,14,11,07,6.10
2017,02,14,11,08,6.10
2017,02,14,11,09,6.00
2017,02,14,11,10,6.00
2017,02,14,11,11,5.90
2017,02,14,11,12,5.90
2017,02,14,11,13,6.00
2017,02,14,11,14,6.00
2017,02,14,11,15,6.10
2017,02,14,11,16,6.10
2017,02,14,11,17,6.10
2017,02,14,11,18,6.20
2017,02,14,11,19,6.30
2017,02,14,11,20,6.30
2017,02,14,11,21,6.40
2017,02,14,11,22,6.40
2017,02,14,11,23,6.50
2017,02,14,11,24,6.50
2017,02,14,11,25,6.60
2017,02,14,11,26,6.70
2017,02,14,11,27,6.70
2017,02,14,11,28,6.80
2017,02,14,11,29,6.80
2017,02,14,11,30,6.90
2017,02,14,11,31,6.90
2017,02,14,11,32,7.00
2017,02,14,11,33,7.00
2017,02,14,11,34,7.00
2017,02,14,11,35,7.10
2017,02,14,11,36,7.10
2017,02,14,11,37,7.10
2017,02,14,11,38,7.10
2017,02,14,11,39,7.10
2017,02,14,11,40,7.10
2017,02,14,11,41,7.10
2017,02,14,11,42,7.10
2017,02,14,11,43,7.10
2017,02,14,11,44,7.10
2017,02,14,11,45,7.10
2017,02,14,11,46,7.10
2017,02,14,11,47,7.10
2017,02,14,11,48,7.10
2017,02,14,11,49,7.10
2017,02,14,11,50,7.10
2017,02,14,11,51,7.20
2017,02,14,11,52,7.20
2017,02,14,11,53,7.20
2017,02,14,11,54,7.20
2017,02,14,11,55,7.20
2017,02,14,11,56,7.20
2017,02,14,11,57,7.30
2017,02,14,11,58,7.30
2017,02,14,11,59,7.30
2017,02,14,12,00,7.30
2017,02,14,12,01,7.20
2017,02,14,12,02,7.20
2017,02,14,12,03,7.20
2017,02,14,12,04,7.20
2017,02,14,12,05,7.20
2017,02,14,12,06,7.20
2017,02,14,12,07,7.20
2017,02,14,12,08,7.20
2017,02,14,12,09,7.20
2017,02,14,12,10,7.20
2017,02,14,12,11,7.20
2017,02,14,12,12,7.10
2017,02,14,12,13,7.20
2017,02,14,12,14,7.20
2017,02,14,12,15,7.20
2017,02,14,12,16,7.20
2017,02,14,12,17,7.30
2017,02,14,12,18,7.30
2017,02,14,12,19,7.30
2017,02,14,12,20,7.30
2017,02,14,12,21,7.20
2017,02,14,12,22,7.20
2017,02,14,12,23,7.20
2017,02,14,12,24,7.10
2017,02,14,12,25,7.10
2017,02,14,12,26,7.10
2017,02,14,12,27,7.20
2017,02,14,12,28,7.30
2017,02,14,12,29,7.40
2017,02,14,12,30,7.50
2017,02,14,12,31,7.60
2017,02,14,12,32,7.70
2017,02,14,12,33,7.80
2017,02,14,12,34,7.90
2017,02,14,12,35,7.90
2017,02,14,12,36,7.90
2017,02,14,12,37,7.90
2017,02,14,12,38,7.90
2017,02,14,12,39,7.90
2017,02,14,12,40,8.00
2017,02,14,12,41,7.90
2017,02,14,12,42,7.80
2017,02,14,12,43,7.80
2017,02,14,12,44,7.70
2017,02,14,12,45,7.70
2017,02,14,12,46,7.80
2017,02,14,12,47,7.90
2017,02,14,12,48,8.00
2017,02,14,12,49,8.10
2017,02,14,12,50,8.20
2017,02,14,12,51,8.20
2017,02,14,12,52,8.30
2017,02,14,12,53,8.50
2017,02,14,12,54,8.60
2017,02,14,12,55,8.70
2017,02,14,12,56,8.80
2017,02,14,12,57,8.80
2017,02,14,12,58,8.90
2017,02,14,12,59,8.90
2017,02,14,13,00,8.80
2017,02,14,13,01,8.80
2017,02,14,13,02,8.80
2017,02,14,13,03,8.80
2017,02,14,13,04,8.80
2017,02,14,13,05,8.80
2017,02,14,13,06,8.90
2017,02,14,13,07,9.00
2017,02,14,13,08,9.10
2017,02,14,13,09,9.20
2017,02,14,13,10,9.20
2017,02,14,13,11,9.30
2017,02,14,13,12,9.30
2017,02,14,13,13,9.40
2017,02,14,13,14,9.40
2017,02,14,13,15,9.40
2017,02,14,13,16,9.50
2017,02,14,13,17,9.50
2017,02,14,13,18,9.60
2017,02,14,13,19,9.60
2017,02,14,13,20,9.60
2017,02,14,13,21,9.60
2017,02,14,13,22,9.70
2017,02,14,13,23,9.70
2017,02,14,13,24,9.70
2017,02,14,13,25,9.70
2017,02,14,13,26,9.70
2017,02,14,13,27,9.70
2017,02,14,13,28,9.60
2017,02,14,13,29,9.60
2017,02,14,13,30,9.60
2017,02,14,13,31,9.60
2017,02,14,13,32,9.60
2017,02,14,13,33,9.60
2017,02,14,13,34,9.60
2017,02,14,13,35,9.60
2017,02,14,13,36,9.60
2017,02,14,13,37,9.60
2017,02,14,13,38,9.60
2017,02,14,13,39,9.60
2017,02,14,13,40,9.60
2017,02,14,13,41,9.60
2017,02,14,13,42,9.50
2017,02,14,13,43,9.60
2017,02,14,13,44,9.60
2017,02,14,13,45,9.70
2017,02,14,13,46,9.70
2017,02,14,13,47,9.70
2017,02,14,13,48,9.70
2017,02,14,13,49,9.70
2017,02,14,13,50,9.70
2017,02,14,13,51,9.60
2017,02,14,13,52,9.70
2017,02,14,13,53,9.70
2017,02,14,13,54,9.70
2017,02,14,13,55,9.70
2017,02,14,13,56,9.70
2017,02,14,13,57,9.70
2017,02,14,13,58,9.70
2017,02,14,13,59,9.70
2017,02,14,14,00,9.70
2017,02,14,14,01,9.80
2017,02,14,14,02,9.80
2017,02,14,14,03,9.80
2017,02,14,14,04,9.80
2017,02,14,14,05,9.80
2017,02,14,14,06,9.80
2017,02,14,14,07,9.80
2017,02,14,14,08,9.70
2017,02,14,14,09,9.70
2017,02,14,14,10,9.70
2017,02,14,14,11,9.60
2017,02,14,14,12,9.60
2017,02,14,14,13,9.60
2017,02,14,14,14,9.60
2017,02,14,14,15,9.50
2017,02,14,14,16,9.50
2017,02,14,14,17,9.40
2017,02,14,14,18,9.30
2017,02,14,14,19,9.20
2017,02,14,14,20,9.10
2017,02,14,14,21,9.00
2017,02,14,14,22,8.90
2017,02,14,14,23,8.80
2017,02,14,14,24,8.60
2017,02,14,14,25,8.50
2017,02,14,14,26,8.50
2017,02,14,14,27,8.40
2017,02,14,14,28,8.30
2017,02,14,14,29,8.30
2017,02,14,14,30,8.30
2017,02,14,14,31,8.30
2017,02,14,14,32,8.20
2017,02,14,14,33,8.10
2017,02,14,14,34,8.00
2017,02,14,14,35,7.90
2017,02,14,14,36,7.90
2017,02,14,14,37,7.80
2017,02,14,14,38,7.90
2017,02,14,14,39,7.90
2017,02,14,14,40,7.90
2017,02,14,14,41,7.90
2017,02,14,14,42,7.90
2017,02,14,14,43,7.80
2017,02,14,14,44,7.80
2017,02,14,14,45,7.70
2017,02,14,14,46,7.60
2017,02,14,14,47,7.40
2017,02,14,14,48,7.30
2017,02,14,14,49,7.20
2017,02,14,14,50,7.30
2017,02,14,14,51,7.30
2017,02,14,14,52,7.20
2017,02,14,14,53,7.00
2017,02,14,14,54,6.90
2017,02,14,14,55,6.90
2017,02,14,14,56,6.80
2017,02,14,14,57,6.70
2017,02,14,14,58,6.60
2017,02,14,14,59,6.50
2017,02,14,15,00,6.40
2017,02,14,15,01,6.30
2017,02,14,15,02,6.20
2017,02,14,15,03,6.20
2017,02,14,15,04,6.10
2017,02,14,15,05,6.00
2017,02,14,15,06,6.00
2017,02,14,15,07,5.90
2017,02,14,15,08,5.80
2017,02,14,15,09,5.70
2017,02,14,15,10,5.60
2017,02,14,15,11,5.60
2017,02,14,15,12,5.60
2017,02,14,15,13,5.60
2017,02,14,15,14,5.60
2017,02,14,15,15,5.60
2017,02,14,15,16,5.60
2017,02,14,15,17,5.60
2017,02,14,15,18,5.50
2017,02,14,15,19,5.50
2017,02,14,15,20,5.50
2017,02,14,15,21,5.40
2017,02,14,15,22,5.40
2017,02,14,15,23,5.40
2017,02,14,15,24,5.40
2017,02,14,15,25,5.50
2017,02,14,15,26,5.50
2017,02,14,15,27,5.40
2017,02,14,15,28,5.40
2017,02,14,15,29,5.30
2017,02,14,15,30,5.30
2017,02,14,15,31,5.30
2017,02,14,15,32,5.30
2017,02,14,15,33,5.30
2017,02,14,15,34,5.30
2017,02,14,15,35,5.20
2017,02,14,15,36,5.10
2017,02,14,15,37,5.10
2017,02,14,15,38,5.00
2017,02,14,15,39,5.00
2017,02,14,15,40,4.90
2017,02,14,15,41,4.80
2017,02,14,15,42,4.80
2017,02,14,15,43,4.80
2017,02,14,15,44,4.80
2017,02,14,15,45,4.80
2017,02,14,15,46,4.80
2017,02,14,15,47,4.70
2017,02,14,15,48,4.70
2017,02,14,15,49,4.80
2017,02,14,15,50,4.70
2017,02,14,15,51,4.70
2017,02,14,15,52,4.70
2017,02,14,15,53,4.70
2017,02,14,15,54,4.70
2017,02,14,15,55,4.80
2017,02,14,15,56,4.80
2017,02,14,15,57,4.80
2017,02,14,15,58,4.80
2017,02,14,15,59,4.80
2017,02,14,16,00,4.80
2017,02,14,16,01,4.70
2017,02,14,16,02,4.70
2017,02,14,16,03,4.60
2017,02,14,16,04,4.50
2017,02,14,16,05,4.50
2017,02,14,16,06,4.50
2017,02,14,16,07,4.40
2017,02,14,16,08,4.40
2017,02,14,16,09,4.30
2017,02,14,16,10,4.30
2017,02,14,20,00,6.20
2017,02,14,20,01,6.30
2017,02,14,20,02,6.30
2017,02,14,20,03,6.40
2017,02,14,20,04,6.40
2017,02,14,20,05,6.40
2017,02,14,20,06,6.50
2017,02,14,20,07,6.50
2017,02,14,20,08,6.50
2017,02,14,20,09,6.50
2017,02,14,20,10,6.50
2017,02,14,20,11,6.60
2017,02,14,20,12,6.70
2017,02,14,20,13,6.70
2017,02,14,20,14,6.80
2017,02,14,20,15,6.80
2017,02,14,20,16,6.80
2017,02,14,20,17,6.80
2017,02,14,20,18,6.80
2017,02,14,20,19,6.80
2017,02,14,20,20,6.80
2017,02,14,20,21,6.80
2017,02,14,20,22,6.80
2017,02,14,20,23,6.90
2017,02,14,20,24,6.90
2017,02,14,20,25,6.90
2017,02,14,20,26,6.90
2017,02,14,20,27,6.90
2017,02,14,20,28,6.90
2017,02,14,20,29,6.90
2017,02,14,20,30,6.90
2017,02,14,20,31,6.90
2017,02,14,20,32,6.90
2017,02,14,20,33,6.90
2017,02,14,20,34,6.80
2017,02,14,20,35,6.70
2017,02,14,20,36,6.70
2017,02,14,20,37,6.70
2017,02,14,20,38,6.70
2017,02,14,20,39,6.70
2017,02,14,20,40,6.60
2017,02,14,20,41,6.60
2017,02,14,20,42,6.60
2017,02,14,20,43,6.60
2017,02,14,20,44,6.60
2017,02,14,20,45,6.70
2017,02,14,20,46,6.80
2017,02,14,20,47,6.80
2017,02,14,20,48,6.80
2017,02,14,20,49,6.80
2017,02,14,20,50,6.80
2017,02,14,20,51,6.80
2017,02,14,20,52,6.80
2017,02,14,20,53,6.80
2017,02,14,20,54,6.80
2017,02,14,20,55,6.80
2017,02,14,20,56,6.80
2017,02,14,20,57,6.80
2017,02,14,20,58,6.90
2017,02,14,20,59,6.90
2017,02,14,21,00,7.00
2017,02,14,21,01,7.00
2017,02,14,21,02,7.00
2017,02,14,21,03,7.00
2017,02,14,21,04,7.00
2017,02,14,21,05,7.00
2017,02,14,21,06,7.00
2017,02,14,21,07,6.90
2017,02,14,21,08,6.90
2017,02,14,21,09,6.90
2017,02,14,21,10,6.90
2017,02,14,21,11,6.90
2017,02,14,21,12,6.90
2017,02,14,21,13,6.90
2017,02,14,21,14,6.90
2017,02,14,21,15,6.90
2017,02,14,21,16,6.90
2017,02,14,21,17,6.90
2017,02,14,21,18,7.00
2017,02,14,21,19,7.00
2017,02,14,21,20,7.00
2017,02,14,21,21,7.10
2017,02,14,21,22,7.10
2017,02,14,21,23,7.20
2017,02,14,21,24,7.20
2017,02,14,21,25,7.30
2017,02,14,21,26,7.30
2017,02,14,21,27,7.20
2017,02,14,21,28,7.20
2017,02,14,21,29,7.20
2017,02,14,21,30,7.20
2017,02,14,21,31,7.20
2017,02,14,21,32,7.20
2017,02,14,21,33,7.20
2017,02,14,21,34,7.20
2017,02,14,21,35,7.20
2017,02,14,21,36,7.30
2017,02,14,21,37,7.30
2017,02,14,21,38,7.30
2017,02,14,21,39,7.30
2017,02,14,21,40,7.20
2017,02,14,21,41,7.20
2017,02,14,21,42,7.20
2017,02,14,21,43,7.20
2017,02,14,21,44,7.20
2017,02,14,21,45,7.10
2017,02,14,21,46,7.20
2017,02,14,21,47,7.20
2017,02,14,21,48,7.20
2017,02,14,21,49,7.30
2017,02,14,21,50,7.30
2017,02,14,21,51,7.30
2017,02,14,21,52,7.30
2017,02,14,21,53,7.30
2017,02,14,21,54,7.20
2017,02,14,21,55,7.20